FW9291 Weather Reports


time (UTC)temp
C
wind
direction
speed
KPH
gust
KPH
rain 1hr
cm
rain 24hr
cm
rain mn
cm
humidity
%
barometer
mb
20260509054931 17 318 6.4 12.9 0.00 0.08 0.08 62 999.6
20260509054432 17 323 4.8 9.7 0.00 0.08 0.08 62 999.6
20260509053931 17 323 4.8 8.0 0.00 0.08 0.08 61 999.6
20260509053435 17 305 3.2 6.4 0.00 0.08 0.08 60 999.5
20260509052934 18 271 4.8 11.3 0.00 0.08 0.08 60 999.4
20260509052435 18 319 6.4 12.9 0.00 0.08 0.08 59 999.5
20260509051934 18 291 6.4 12.9 0.00 0.08 0.08 59 999.6
20260509051433 18 290 8.0 12.9 0.00 0.08 0.08 59 999.5
20260509050933 18 313 8.0 16.1 0.00 0.08 0.08 59 999.3
20260509050444 18 327 8.0 16.1 0.00 0.08 0.08 58 999.4
20260509045433 19 328 8.0 14.5 0.00 0.08 0.08 57 999.4
20260509044432 19 302 11.3 20.9 0.00 0.08 0.08 56 999.4
20260509043931 19 343 11.3 24.1 0.00 0.08 0.08 56 999.4
20260509043433 19 308 12.9 25.7 0.00 0.08 0.08 56 999.3
20260509042931 19 288 12.9 25.7 0.00 0.08 0.08 57 999.2
20260509042431 19 343 11.3 24.1 0.00 0.08 0.08 57 999.1
20260509041934 19 316 11.3 24.1 0.00 0.08 0.08 58 999.1
20260509040931 19 294 12.9 22.5 0.00 0.08 0.08 57 999.1
20260509040434 19 311 11.3 22.5 0.00 0.08 0.08 56 999.1
20260509035435 19 320 14.5 24.1 0.00 0.08 0.08 55 998.9
20260509034939 19 313 16.1 30.6 0.00 0.08 0.08 55 999.0
20260509034438 19 298 16.1 30.6 0.00 0.08 0.08 54 998.9
20260509033932 19 319 14.5 25.7 0.00 0.08 0.08 53 998.8
20260509032933 20 313 11.3 22.5 0.00 0.08 0.08 53 999.0
20260509032431 20 325 12.9 22.5 0.00 0.08 0.08 52 998.9
20260509030933 20 317 12.9 22.5 0.00 0.08 0.08 52 998.9
20260509030432 20 321 14.5 25.7 0.00 0.08 0.08 51 998.9
20260509025932 20 309 16.1 30.6 0.00 0.08 0.08 51 998.9
20260509025434 20 309 14.5 30.6 0.00 0.08 0.08 51 998.8
20260509024935 20 308 14.5 30.6 0.00 0.08 0.08 50 998.8
20260509024432 21 323 14.5 27.4 0.00 0.08 0.08 49 998.8
20260509023936 21 0 14.5 27.4 0.00 0.08 0.08 49 998.8
20260509023434 21 282 16.1 33.8 0.00 0.08 0.08 48 998.8
20260509022932 21 325 16.1 33.8 0.00 0.08 0.08 49 998.7
20260509021431 21 329 14.5 27.4 0.00 0.08 0.08 50 998.8
20260509020933 20 313 14.5 27.4 0.00 0.08 0.08 50 998.9
20260509020432 21 300 14.5 27.4 0.00 0.08 0.08 50 999.0
20260509015932 20 325 14.5 25.7 0.00 0.08 0.08 51 999.0
20260509015431 20 311 14.5 29.0 0.00 0.08 0.08 51 999.1
20260509014933 21 333 16.1 29.0 0.00 0.08 0.08 51 999.0
20260509014430 21 303 17.7 30.6 0.00 0.08 0.08 50 999.1
20260509013928 21 294 17.7 30.6 0.00 0.08 0.08 48 999.0
20260509012927 22 313 16.1 32.2 0.00 0.08 0.08 48 998.9
20260509011926 21 313 14.5 29.0 0.00 0.08 0.08 51 999.1
20260509011428 21 304 14.5 30.6 0.00 0.08 0.08 52 999.3
20260509010927 21 308 14.5 30.6 0.00 0.08 0.08 53 999.3
20260509010428 21 345 14.5 25.7 0.00 0.08 0.08 54 999.3
20260509005422 21 325 14.5 25.7 0.00 0.08 0.08 53 999.4
20260509004426 21 322 17.7 29.0 0.00 0.08 0.08 53 999.7
20260509003927 21 301 16.1 27.4 0.00 0.08 0.08 53 999.7
20260509003422 21 0 14.5 29.0 0.00 0.08 0.08 53 1000.1
20260509002921 21 322 16.1 29.0 0.00 0.08 0.08 53 1000.2
20260509002422 21 317 16.1 30.6 0.00 0.08 0.08 54 1000.1
20260509001921 21 350 17.7 32.2 0.00 0.08 0.08 54 1000.1
20260509001423 21 308 17.7 32.2 0.00 0.08 0.08 54 1000.0
20260508235921 21 326 16.1 29.0 0.00 0.08 0.08 55 1000.4
20260508235421 21 5 17.7 29.0 0.00 0.08 0.08 55 1000.4
20260508234916 21 332 17.7 29.0 0.00 0.08 0.08 55 1000.6
20260508234416 21 304 16.1 32.2 0.00 0.08 0.08 54 1000.6
20260508233917 21 329 16.1 32.2 0.00 0.08 0.08 54 1000.8
20260508232417 21 294 12.9 29.0 0.00 0.08 0.08 55 1001.2
20260508231919 21 320 12.9 22.5 0.00 0.08 0.08 55 1001.4
20260508230917 21 336 12.9 20.9 0.00 0.08 0.08 56 1001.4
20260508230417 20 340 12.9 20.9 0.00 0.08 0.08 56 1001.4
20260508225917 20 5 11.3 29.0 0.00 0.08 0.08 58 1001.3
20260508224919 20 325 14.5 27.4 0.00 0.08 0.08 57 1001.6
20260508224418 20 309 16.1 27.4 0.00 0.08 0.08 57 1001.7
20260508223919 20 342 14.5 27.4 0.00 0.08 0.08 58 1001.7
20260508223428 20 336 12.9 25.7 0.00 0.08 0.08 58 1001.7
20260508222418 20 327 12.9 25.7 0.00 0.08 0.08 60 1001.7
20260508221917 20 311 14.5 25.7 0.00 0.08 0.08 59 1001.8
20260508221415 19 332 14.5 24.1 0.00 0.08 0.08 59 1002.0
20260508220916 19 313 14.5 27.4 0.00 0.08 0.08 59 1001.9
20260508220415 19 307 16.1 30.6 0.00 0.08 0.08 60 1001.9
20260508215914 19 331 17.7 30.6 0.00 0.08 0.08 60 1001.8
20260508214414 19 306 16.1 24.1 0.00 0.08 0.08 60 1002.0
20260508213914 19 26 16.1 25.7 0.00 0.08 0.08 60 1001.9
20260508213414 19 346 14.5 25.7 0.00 0.08 0.08 60 1002.0
20260508212411 18 328 16.1 29.0 0.00 0.08 0.08 60 1001.9
20260508211913 18 334 16.1 29.0 0.00 0.08 0.08 60 1001.9
20260508211414 18 312 14.5 25.7 0.00 0.08 0.08 61 1001.9
20260508210910 18 355 12.9 25.7 0.00 0.08 0.08 62 1002.0
20260508210408 18 331 12.9 27.4 0.00 0.08 0.08 62 1001.9
20260508205905 18 325 12.9 27.4 0.00 0.08 0.08 62 1002.2
20260508205413 18 347 11.3 22.5 0.00 0.08 0.08 63 1002.0
20260508204906 18 324 9.7 22.5 0.00 0.08 0.08 64 1002.1
20260508204407 17 317 9.7 19.3 0.00 0.08 0.08 65 1002.1
20260508203904 17 321 9.7 19.3 0.00 0.08 0.08 64 1002.3
20260508203404 17 299 6.4 17.7 0.00 0.08 0.08 65 1002.3
20260508202904 17 306 4.8 12.9 0.00 0.08 0.08 67 1002.2
20260508202406 17 342 4.8 9.7 0.00 0.08 0.08 69 1002.2
20260508200905 17 338 6.4 14.5 0.00 0.08 0.08 69 1002.4
20260508200404 17 320 4.8 14.5 0.00 0.08 0.08 69 1002.3
20260508195902 16 340 4.8 9.7 0.00 0.08 0.08 71 1002.6
20260508195402 16 321 4.8 16.1 0.00 0.08 0.08 71 1002.5
20260508194404 16 339 4.8 14.5 0.00 0.08 0.08 73 1002.3
20260508193856 16 355 4.8 8.0 0.00 0.08 0.08 73 1002.3
20260508193400 16 350 4.8 8.0 0.00 0.08 0.08 73 1002.2
20260508192858 16 331 4.8 9.7 0.00 0.08 0.08 73 1002.1
20260508192402 16 343 4.8 14.5 0.00 0.08 0.08 73 1002.3
20260508191858 15 5 4.8 14.5 0.00 0.08 0.08 74 1002.2
20260508191401 15 11 3.2 9.7 0.00 0.08 0.08 75 1002.0
20260508190859 15 338 1.6 6.4 0.00 0.08 0.08 74 1002.0
20260508190400 15 310 0.0 3.2 0.00 0.08 0.08 73 1002.0
20260508185858 15 310 0.0 3.2 0.00 0.08 0.08 72 1002.0
20260508185401 15 310 0.0 3.2 0.00 0.08 0.08 71 1002.0
20260508184858 16 310 1.6 3.2 0.00 0.08 0.08 70 1002.0
20260508184359 16 311 1.6 6.4 0.00 0.08 0.08 69 1001.9
20260508183857 16 310 3.2 8.0 0.00 0.08 0.08 68 1001.8
20260508183401 16 311 4.8 11.3 0.00 0.08 0.08 68 1001.6
20260508182857 16 318 4.8 11.3 0.00 0.08 0.08 69 1001.5
20260508182354 16 315 4.8 11.3 0.00 0.08 0.08 69 1001.5
20260508181853 16 298 4.8 9.7 0.00 0.08 0.08 70 1001.6
20260508180352 16 317 4.8 9.7 0.00 0.08 0.08 71 1001.7
20260508175851 16 355 4.8 12.9 0.00 0.08 0.08 70 1001.7
20260508174848 16 345 6.4 14.5 0.00 0.08 0.08 71 1001.6
20260508174351 16 338 4.8 12.9 0.00 0.08 0.08 71 1001.7
20260508173848 16 321 4.8 9.7 0.00 0.08 0.08 71 1001.8
20260508173349 16 304 4.8 11.3 0.00 0.08 0.08 71 1001.8
20260508172848 17 283 4.8 11.3 0.00 0.08 0.08 72 1001.7
20260508172351 17 311 4.8 11.3 0.00 0.08 0.08 72 1001.6
20260508171847 17 306 4.8 11.3 0.00 0.08 0.08 72 1001.9
20260508171347 17 323 6.4 16.1 0.00 0.08 0.08 72 1001.8
20260508170846 17 304 6.4 16.1 0.00 0.08 0.08 72 1001.8
20260508170349 17 23 4.8 9.7 0.00 0.08 0.08 74 1001.6
20260508165846 17 321 4.8 12.9 0.00 0.08 0.08 73 1001.7
20260508165346 18 315 6.4 14.5 0.00 0.08 0.08 73 1001.5
20260508164849 18 315 6.4 17.7 0.00 0.08 0.08 73 1001.3
20260508164347 17 334 6.4 17.7 0.00 0.08 0.08 74 1001.2
20260508163848 17 310 6.4 19.3 0.00 0.08 0.08 75 1001.1
20260508163345 17 355 8.0 19.3 0.00 0.08 0.08 80 1001.2
20260508162854 17 331 9.7 20.9 0.00 0.08 0.08 81 1001.5
20260508162350 17 12 11.3 20.9 0.00 0.08 0.08 81 1001.5
20260508161849 17 38 12.9 22.5 0.00 0.08 0.08 81 1001.5
20260508160844 17 10 9.7 22.5 0.00 0.08 0.08 80 1001.6
20260508155343 18 65 12.9 22.5 0.00 0.08 0.08 79 1001.8
20260508154841 18 30 12.9 24.1 0.00 0.08 0.08 78 1001.7
20260508154342 18 0 12.9 27.4 0.00 0.08 0.08 78 1001.9
20260508153841 18 340 12.9 27.4 0.00 0.08 0.08 79 1001.9
20260508153343 17 5 12.9 25.7 0.03 0.08 0.08 79 1001.9
20260508152842 17 30 12.9 32.2 0.03 0.08 0.08 79 1002.0
20260508152342 17 19 11.3 32.2 0.05 0.08 0.08 80 1002.0
20260508151841 17 355 9.7 20.9 0.05 0.08 0.08 81 1002.5
20260508150845 17 0 9.7 19.3 0.05 0.08 0.08 81 1002.0
20260508150341 17 337 11.3 19.3 0.05 0.08 0.08 80 1002.0
20260508145843 17 5 9.7 19.3 0.05 0.08 0.08 80 1002.2
20260508145343 17 5 9.7 17.7 0.05 0.08 0.08 79 1002.1
20260508144841 17 24 9.7 24.1 0.05 0.08 0.08 79 1002.1
20260508144341 17 22 9.7 24.1 0.05 0.08 0.08 79 1002.3
20260508143339 18 0 11.3 22.5 0.03 0.05 0.05 77 1002.3
20260508142842 18 22 11.3 22.5 0.03 0.05 0.05 76 1002.5
20260508141839 18 344 11.3 27.4 0.00 0.05 0.05 76 1003.3
20260508141341 18 355 14.5 30.6 0.00 0.05 0.05 77 1002.8
20260508140840 18 21 14.5 32.2 0.00 0.05 0.05 77 1002.5
20260508140340 18 10 16.1 32.2 0.03 0.05 0.05 77 1002.3
20260508135839 18 10 16.1 33.8 0.05 0.05 0.05 77 1002.2
20260508135337 17 0 16.1 33.8 0.05 0.05 0.05 79 1002.4
20260508134836 17 5 14.5 29.0 0.05 0.05 0.05 81 1002.4
20260508134334 17 10 14.5 27.4 0.05 0.05 0.05 82 1002.8
20260508133337 16 355 14.5 29.0 0.05 0.05 0.05 83 1002.7
20260508132333 16 13 11.3 22.5 0.05 0.05 0.05 82 1002.9
20260508131835 17 339 11.3 22.5 0.05 0.05 0.05 82 1002.6
20260508131332 17 5 11.3 22.5 0.05 0.05 0.05 81 1002.5
20260508130832 17 320 12.9 25.7 0.05 0.05 0.05 80 1002.4
20260508130334 18 55 11.3 25.7 0.03 0.03 0.03 77 1002.5
20260508125832 18 28 11.3 20.9 0.00 0.00 0.00 74 1003.5
20260508125332 18 50 11.3 20.9 0.00 0.00 0.00 71 1004.0
20260508124834 19 10 9.7 19.3 0.00 0.00 0.00 71 1004.0
20260508124334 19 355 8.0 20.9 0.00 0.00 0.00 71 1004.3
20260508123832 18 13 9.7 20.9 0.00 0.00 0.00 71 1004.5
20260508123331 18 339 9.7 20.9 0.00 0.00 0.00 72 1004.4
20260508122832 18 11 9.7 22.5 0.00 0.00 0.00 73 1004.3
20260508122334 18 22 9.7 22.5 0.00 0.00 0.00 73 1004.2
20260508121831 18 15 9.7 22.5 0.00 0.00 0.00 73 1004.2
20260508121331 18 22 11.3 22.5 0.00 0.00 0.00 73 1004.1
20260508120831 18 351 11.3 22.5 0.00 0.00 0.00 74 1004.3
20260508120327 18 15 11.3 22.5 0.00 0.00 0.00 74 1004.5
20260508115828 18 324 12.9 24.1 0.00 0.00 0.00 73 1004.6
20260508115327 18 5 14.5 24.1 0.00 0.00 0.00 72 1004.6
20260508113825 18 330 12.9 29.0 0.00 0.00 0.00 70 1004.9
20260508113322 19 13 12.9 29.0 0.00 0.00 0.00 69 1004.9
20260508111821 19 0 16.1 30.6 0.00 0.00 0.00 68 1005.1
20260508111324 19 355 17.7 29.0 0.00 0.00 0.00 68 1004.9
20260508110822 19 5 17.7 35.4 0.00 0.00 0.00 68 1004.6
20260508110334 19 25 16.1 35.4 0.00 0.00 0.00 68 1004.6
20260508105818 19 38 17.7 33.8 0.00 0.00 0.00 68 1004.6
20260508105315 19 5 17.7 37.0 0.00 0.00 0.00 67 1004.4
20260508104811 19 350 17.7 37.0 0.00 0.00 0.00 68 1004.6
20260508104307 19 13 17.7 30.6 0.00 0.00 0.00 68 1005.1
20260508103811 19 314 17.7 33.8 0.00 0.00 0.00 68 1005.3
20260508103308 19 28 17.7 37.0 0.00 0.00 0.00 69 1005.5
20260508102813 18 10 14.5 37.0 0.00 0.00 0.00 70 1005.5
20260508102309 18 336 9.7 22.5 0.00 0.00 0.00 73 1005.8
20260508101810 17 15 8.0 17.7 0.00 0.00 0.00 77 1005.8
20260508101309 17 24 11.3 24.1 0.00 0.00 0.00 79 1005.9
20260508100808 17 35 12.9 24.1 0.00 0.00 0.00 78 1006.1
20260508100309 17 55 11.3 24.1 0.00 0.00 0.00 78 1006.2
20260508095808 17 28 8.0 24.1 0.00 0.00 0.00 78 1006.4
20260508095308 17 30 8.0 19.3 0.00 0.00 0.00 78 1006.4
20260508094809 17 0 9.7 24.1 0.00 0.00 0.00 78 1006.4
20260508094308 17 36 12.9 24.1 0.00 0.00 0.00 78 1006.3
20260508093805 17 43 14.5 27.4 0.00 0.00 0.00 77 1006.4
20260508093306 17 22 11.3 27.4 0.00 0.00 0.00 76 1006.4
20260508092313 17 32 8.0 19.3 0.00 0.00 0.00 75 1006.2
20260508091806 17 16 9.7 24.1 0.00 0.00 0.00 75 1006.3
20260508091303 17 17 11.3 24.1 0.00 0.00 0.00 74 1006.4
20260508090804 17 338 12.9 24.1 0.00 0.00 0.00 74 1006.4
20260508090304 17 32 11.3 24.1 0.00 0.00 0.00 74 1006.3
20260508085804 17 24 11.3 24.1 0.00 0.00 0.00 74 1006.2
20260508085307 17 19 11.3 24.1 0.00 0.00 0.00 74 1006.2
20260508084805 17 68 9.7 19.3 0.00 0.00 0.00 74 1006.4
20260508084302 18 23 9.7 19.3 0.00 0.00 0.00 73 1006.4
20260508083801 18 16 12.9 29.0 0.00 0.00 0.00 72 1006.2
20260508083302 18 5 19.3 40.2 0.00 0.00 0.00 70 1006.0
20260508082801 18 31 19.3 40.2 0.00 0.00 0.00 69 1005.7
20260508082306 18 19 17.7 35.4 0.00 0.00 0.00 68 1005.5
20260508081258 18 40 16.1 35.4 0.00 0.00 0.00 68 1006.0
20260508080800 18 13 14.5 32.2 0.00 0.00 0.00 69 1006.0
20260508080258 18 355 12.9 29.0 0.00 0.00 0.00 70 1006.1
20260508075257 18 355 11.3 27.4 0.00 0.00 0.00 70 1006.6
20260508074800 18 0 12.9 27.4 0.00 0.00 0.00 70 1006.8
20260508074253 18 5 12.9 33.8 0.00 0.00 0.00 69 1007.1
20260508073753 18 21 12.9 33.8 0.00 0.00 0.00 68 1007.3
20260508073253 18 11 14.5 30.6 0.00 0.00 0.00 68 1007.3
20260508072754 18 355 12.9 27.4 0.00 0.00 0.00 69 1007.3
20260508072254 18 0 16.1 35.4 0.00 0.00 0.00 69 1007.5
20260508071754 18 350 17.7 35.4 0.00 0.00 0.00 70 1007.4
20260508071254 18 5 16.1 29.0 0.00 0.00 0.00 71 1007.4
20260508070753 18 12 14.5 29.0 0.00 0.00 0.00 72 1007.4
20260508070253 17 69 11.3 22.5 0.00 0.00 0.00 73 1007.2
20260508065752 17 30 9.7 20.9 0.00 0.00 0.00 73 1007.5
20260508065254 17 19 11.3 24.1 0.00 0.00 0.00 73 1007.6
20260508064751 18 32 11.3 24.1 0.00 0.00 0.00 72 1007.7
20260508064255 18 9 14.5 29.0 0.00 0.00 0.00 72 1007.8
20260508063751 18 53 14.5 29.0 0.00 0.00 0.00 71 1008.0
20260508063254 18 49 12.9 25.7 0.00 0.00 0.00 71 1008.2
20260508062751 18 79 16.1 32.2 0.00 0.00 0.00 71 1008.2
20260508062252 18 44 17.7 32.2 0.00 0.00 0.00 71 1008.5
20260508061250 17 355 12.9 27.4 0.00 0.00 0.00 72 1008.5
20260508060749 17 41 12.9 27.4 0.00 0.00 0.00 72 1008.6
20260508060251 17 32 11.3 27.4 0.00 0.00 0.00 72 1008.6
20260508055751 18 0 9.7 20.9 0.00 0.00 0.00 72 1008.8
20260508055250 18 50 12.9 25.7 0.00 0.00 0.00 71 1009.0